| time (UTC) | temp F | wind direction | speed MPH | gust MPH | rain 1hr in | rain 24hr in | rain mn in | humidity % | barometer mb |
| 20260505051005 | 60 | 360 | 3.0 | 7.0 | 0.03 | 0.04 | 0.04 | 84 | 1014.8 |
| 20260505050509 | 60 | 360 | 2.0 | 7.0 | 0.03 | 0.04 | 0.04 | 84 | 1014.8 |
| 20260505041516 | 62 | 360 | 0.0 | 2.0 | 0.01 | 0.01 | 0.01 | 72 | 1015.4 |
| 20260505041006 | 62 | 360 | 0.0 | 2.0 | 0.01 | 0.01 | 0.01 | 71 | 1015.3 |
| 20260505040506 | 62 | 360 | 0.0 | 3.0 | 0.01 | 0.01 | 0.01 | 68 | 1015.3 |
| 20260505040018 | 63 | 360 | 1.0 | 3.0 | 0.00 | 0.00 | 0.00 | 68 | 1015.4 |
| 20260505035508 | 63 | 360 | 1.0 | 3.0 | 0.00 | 0.00 | 0.00 | 66 | 1015.4 |
| 20260505035004 | 63 | 360 | 0.0 | 5.0 | 0.00 | 0.00 | 0.00 | 64 | 1015.1 |
| 20260505034520 | 63 | 11 | 1.0 | 6.0 | 0.00 | 0.00 | 0.00 | 63 | 1014.9 |
| 20260505034007 | 63 | 6 | 1.0 | 6.0 | 0.00 | 0.00 | 0.00 | 63 | 1014.3 |
| 20260505033504 | 62 | 5 | 1.0 | 8.0 | 0.00 | 0.00 | 0.00 | 62 | 1014.2 |
| 20260505033019 | 62 | 360 | 2.0 | 9.0 | 0.00 | 0.00 | 0.00 | 63 | 1013.9 |
| 20260505032504 | 62 | 360 | 3.0 | 10.0 | 0.00 | 0.00 | 0.00 | 62 | 1013.8 |
| 20260505032003 | 62 | 360 | 4.0 | 12.0 | 0.00 | 0.00 | 0.00 | 62 | 1013.7 |
| 20260505031519 | 61 | 360 | 6.0 | 17.0 | 0.00 | 0.00 | 0.00 | 62 | 1013.6 |
| 20260505031007 | 61 | 360 | 5.0 | 17.0 | 0.00 | 0.00 | 0.00 | 62 | 1013.5 |
| 20260505030503 | 61 | 11 | 8.0 | 17.0 | 0.00 | 0.00 | 0.00 | 63 | 1013.8 |
| 20260505030020 | 61 | 360 | 7.0 | 15.0 | 0.00 | 0.00 | 0.00 | 62 | 1014.2 |
| 20260505025511 | 62 | 360 | 4.0 | 15.0 | 0.00 | 0.00 | 0.00 | 60 | 1014.6 |
| 20260505025006 | 63 | 360 | 7.0 | 15.0 | 0.00 | 0.00 | 0.00 | 57 | 1014.5 |
| 20260505024520 | 63 | 360 | 10.0 | 15.0 | 0.00 | 0.00 | 0.00 | 57 | 1014.3 |
| 20260505024007 | 64 | 360 | 6.0 | 14.0 | 0.00 | 0.00 | 0.00 | 56 | 1014.4 |
| 20260505023504 | 64 | 360 | 3.0 | 8.0 | 0.00 | 0.00 | 0.00 | 50 | 1014.5 |
| 20260505023020 | 64 | 360 | 4.0 | 8.0 | 0.00 | 0.00 | 0.00 | 49 | 1014.6 |
| 20260505022506 | 64 | 360 | 3.0 | 8.0 | 0.00 | 0.00 | 0.00 | 48 | 1014.5 |
| 20260505022006 | 64 | 360 | 2.0 | 6.0 | 0.00 | 0.00 | 0.00 | 52 | 1014.6 |
| 20260505021522 | 64 | 360 | 1.0 | 6.0 | 0.00 | 0.00 | 0.00 | 52 | 1014.5 |
| 20260505021005 | 65 | 360 | 1.0 | 6.0 | 0.00 | 0.00 | 0.00 | 54 | 1014.7 |
| 20260505020502 | 66 | 360 | 0.0 | 3.0 | 0.00 | 0.00 | 0.00 | 51 | 1014.7 |
| 20260505020019 | 66 | 7 | 0.0 | 3.0 | 0.00 | 0.00 | 0.00 | 48 | 1014.7 |
| 20260505015512 | 66 | 7 | 0.0 | 3.0 | 0.00 | 0.00 | 0.00 | 46 | 1014.9 |
| 20260505015003 | 67 | 7 | 0.0 | 4.0 | 0.00 | 0.00 | 0.00 | 44 | 1014.7 |
| 20260505014519 | 67 | 7 | 0.0 | 8.0 | 0.00 | 0.00 | 0.00 | 42 | 1014.8 |
| 20260505014012 | 67 | 8 | 3.0 | 8.0 | 0.00 | 0.00 | 0.00 | 44 | 1014.9 |
| 20260505013503 | 68 | 266 | 1.0 | 10.0 | 0.00 | 0.00 | 0.00 | 41 | 1014.7 |
| 20260505013020 | 68 | 168 | 3.0 | 11.0 | 0.00 | 0.00 | 0.00 | 39 | 1014.5 |
| 20260505012506 | 68 | 360 | 6.0 | 11.0 | 0.00 | 0.00 | 0.00 | 38 | 1014.4 |
| 20260505012009 | 68 | 11 | 2.0 | 7.0 | 0.00 | 0.00 | 0.00 | 38 | 1014.2 |
| 20260505011520 | 68 | 360 | 2.0 | 5.0 | 0.00 | 0.00 | 0.00 | 39 | 1014.1 |
| 20260505011006 | 68 | 360 | 2.0 | 5.0 | 0.00 | 0.00 | 0.00 | 39 | 1013.9 |
| 20260505010508 | 68 | 360 | 2.0 | 6.0 | 0.00 | 0.00 | 0.00 | 40 | 1013.9 |
| 20260505010019 | 68 | 360 | 2.0 | 7.0 | 0.00 | 0.00 | 0.00 | 41 | 1013.8 |
| 20260505005505 | 68 | 360 | 3.0 | 7.0 | 0.00 | 0.00 | 0.00 | 42 | 1013.8 |
| 20260505005006 | 68 | 360 | 3.0 | 7.0 | 0.00 | 0.00 | 0.00 | 45 | 1014.0 |
| 20260505004522 | 68 | 360 | 2.0 | 7.0 | 0.00 | 0.00 | 0.00 | 44 | 1014.1 |
| 20260505004005 | 69 | 7 | 2.0 | 6.0 | 0.00 | 0.00 | 0.00 | 43 | 1014.1 |
| 20260505003507 | 69 | 11 | 3.0 | 10.0 | 0.00 | 0.00 | 0.00 | 42 | 1014.2 |
| 20260505003023 | 69 | 360 | 2.0 | 10.0 | 0.00 | 0.00 | 0.00 | 42 | 1014.0 |
| 20260505002508 | 70 | 360 | 3.0 | 8.0 | 0.00 | 0.00 | 0.00 | 40 | 1014.1 |
| 20260505002004 | 71 | 360 | 2.0 | 11.0 | 0.00 | 0.00 | 0.00 | 39 | 1014.0 |
| 20260505001525 | 71 | 360 | 2.0 | 11.0 | 0.00 | 0.00 | 0.00 | 39 | 1013.8 |
| 20260505001004 | 72 | 7 | 4.0 | 8.0 | 0.00 | 0.00 | 0.00 | 37 | 1013.8 |
| 20260505000507 | 72 | 7 | 2.0 | 5.0 | 0.00 | 0.00 | 0.00 | 35 | 1013.7 |
| 20260505000005 | 72 | 7 | 2.0 | 5.0 | 0.00 | 0.00 | 0.00 | 36 | 1013.5 |
| 20260504235505 | 72 | 6 | 1.0 | 5.0 | 0.00 | 0.00 | 0.00 | 35 | 1013.4 |
| 20260504235006 | 72 | 7 | 0.0 | 5.0 | 0.00 | 0.00 | 0.00 | 34 | 1013.3 |
| 20260504234523 | 72 | 7 | 0.0 | 2.0 | 0.00 | 0.00 | 0.00 | 35 | 1013.2 |
| 20260504234008 | 72 | 7 | 0.0 | 6.0 | 0.00 | 0.00 | 0.00 | 36 | 1013.2 |
| 20260504233505 | 72 | 360 | 0.0 | 10.0 | 0.00 | 0.00 | 0.00 | 36 | 1013.4 |
| 20260504233024 | 73 | 360 | 4.0 | 12.0 | 0.00 | 0.00 | 0.00 | 36 | 1013.7 |
| 20260504232505 | 73 | 360 | 6.0 | 12.0 | 0.00 | 0.00 | 0.00 | 34 | 1013.9 |
| 20260504232005 | 74 | 360 | 5.0 | 16.0 | 0.00 | 0.00 | 0.00 | 33 | 1013.9 |
| 20260504231523 | 74 | 360 | 6.0 | 18.0 | 0.00 | 0.00 | 0.00 | 31 | 1013.9 |
| 20260504231005 | 75 | 360 | 9.0 | 18.0 | 0.00 | 0.00 | 0.00 | 29 | 1013.9 |
| 20260504230504 | 76 | 360 | 9.0 | 17.0 | 0.00 | 0.00 | 0.00 | 26 | 1013.8 |
| 20260504230025 | 77 | 360 | 7.0 | 12.0 | 0.00 | 0.00 | 0.00 | 25 | 1013.7 |
| 20260504225514 | 77 | 360 | 5.0 | 16.0 | 0.00 | 0.00 | 0.00 | 24 | 1013.5 |
| 20260504225004 | 77 | 360 | 6.0 | 16.0 | 0.00 | 0.00 | 0.00 | 24 | 1013.5 |
| 20260504224524 | 77 | 360 | 8.0 | 16.0 | 0.00 | 0.00 | 0.00 | 24 | 1013.4 |
| 20260504224006 | 78 | 360 | 6.0 | 16.0 | 0.00 | 0.00 | 0.00 | 23 | 1013.3 |
| 20260504223505 | 78 | 360 | 6.0 | 19.0 | 0.00 | 0.00 | 0.00 | 23 | 1013.5 |
| 20260504223026 | 78 | 360 | 12.0 | 20.0 | 0.00 | 0.00 | 0.00 | 23 | 1013.2 |
| 20260504222508 | 79 | 360 | 11.0 | 20.0 | 0.00 | 0.00 | 0.00 | 22 | 1013.0 |
| 20260504222003 | 79 | 360 | 7.0 | 16.0 | 0.00 | 0.00 | 0.00 | 20 | 1013.1 |
| 20260504221523 | 80 | 360 | 8.0 | 16.0 | 0.00 | 0.00 | 0.00 | 20 | 1012.8 |
| 20260504221007 | 80 | 360 | 9.0 | 17.0 | 0.00 | 0.00 | 0.00 | 20 | 1012.8 |
| 20260504220503 | 80 | 360 | 6.0 | 17.0 | 0.00 | 0.00 | 0.00 | 19 | 1013.0 |
| 20260504220026 | 80 | 360 | 8.0 | 15.0 | 0.00 | 0.00 | 0.00 | 20 | 1013.0 |
| 20260504215507 | 80 | 360 | 9.0 | 23.0 | 0.00 | 0.00 | 0.00 | 19 | 1013.2 |
| 20260504215007 | 81 | 360 | 10.0 | 23.0 | 0.00 | 0.00 | 0.00 | 18 | 1013.2 |
| 20260504214524 | 81 | 360 | 8.0 | 16.0 | 0.00 | 0.00 | 0.00 | 18 | 1013.0 |
| 20260504214004 | 82 | 360 | 5.0 | 16.0 | 0.00 | 0.00 | 0.00 | 18 | 1012.9 |
| 20260504213505 | 82 | 360 | 6.0 | 13.0 | 0.00 | 0.00 | 0.00 | 18 | 1012.9 |
| 20260504213026 | 81 | 360 | 5.0 | 13.0 | 0.00 | 0.00 | 0.00 | 18 | 1012.9 |
| 20260504212508 | 82 | 360 | 7.0 | 13.0 | 0.00 | 0.00 | 0.00 | 18 | 1012.8 |
| 20260504212006 | 82 | 360 | 5.0 | 13.0 | 0.00 | 0.00 | 0.00 | 18 | 1012.8 |
| 20260504211524 | 82 | 360 | 5.0 | 13.0 | 0.00 | 0.00 | 0.00 | 19 | 1012.8 |
| 20260504211007 | 82 | 360 | 7.0 | 13.0 | 0.00 | 0.00 | 0.00 | 19 | 1012.8 |
| 20260504210503 | 82 | 360 | 4.0 | 15.0 | 0.00 | 0.00 | 0.00 | 20 | 1012.9 |
| 20260504210031 | 82 | 360 | 7.0 | 15.0 | 0.00 | 0.00 | 0.00 | 19 | 1013.0 |
| 20260504205511 | 83 | 360 | 2.0 | 12.0 | 0.00 | 0.00 | 0.00 | 16 | 1013.0 |
| 20260504205004 | 82 | 360 | 5.0 | 12.0 | 0.00 | 0.00 | 0.00 | 16 | 1013.0 |
| 20260504204523 | 82 | 360 | 5.0 | 10.0 | 0.00 | 0.00 | 0.00 | 16 | 1013.0 |
| 20260504204007 | 82 | 360 | 6.0 | 10.0 | 0.00 | 0.00 | 0.00 | 16 | 1012.9 |
| 20260504203506 | 82 | 360 | 3.0 | 10.0 | 0.00 | 0.00 | 0.00 | 17 | 1012.9 |
| 20260504203034 | 82 | 360 | 3.0 | 7.0 | 0.00 | 0.00 | 0.00 | 17 | 1013.0 |
| 20260504202507 | 82 | 360 | 3.0 | 10.0 | 0.00 | 0.00 | 0.00 | 17 | 1013.0 |
| 20260504202004 | 82 | 360 | 3.0 | 10.0 | 0.00 | 0.00 | 0.00 | 17 | 1012.9 |
| 20260504201525 | 83 | 360 | 4.0 | 12.0 | 0.00 | 0.00 | 0.00 | 17 | 1013.2 |
| 20260504201005 | 82 | 360 | 5.0 | 12.0 | 0.00 | 0.00 | 0.00 | 17 | 1013.2 |
| 20260504200503 | 83 | 360 | 5.0 | 11.0 | 0.00 | 0.00 | 0.00 | 16 | 1013.1 |
| 20260504200026 | 83 | 360 | 0.0 | 7.0 | 0.00 | 0.00 | 0.00 | 17 | 1013.2 |
| 20260504195507 | 83 | 360 | 4.0 | 7.0 | 0.00 | 0.00 | 0.00 | 16 | 1013.2 |
| 20260504195003 | 83 | 360 | 3.0 | 8.0 | 0.00 | 0.00 | 0.00 | 16 | 1013.2 |
| 20260504194524 | 82 | 360 | 2.0 | 13.0 | 0.00 | 0.00 | 0.00 | 17 | 1013.2 |
| 20260504194006 | 82 | 360 | 5.0 | 13.0 | 0.00 | 0.00 | 0.00 | 18 | 1013.1 |
| 20260504193507 | 82 | 360 | 4.0 | 10.0 | 0.00 | 0.00 | 0.00 | 18 | 1013.0 |
| 20260504193026 | 82 | 360 | 4.0 | 10.0 | 0.00 | 0.00 | 0.00 | 18 | 1013.0 |
| 20260504192509 | 82 | 360 | 3.0 | 11.0 | 0.00 | 0.00 | 0.00 | 19 | 1013.1 |
| 20260504192003 | 82 | 360 | 4.0 | 11.0 | 0.00 | 0.00 | 0.00 | 16 | 1013.0 |
| 20260504191527 | 82 | 360 | 4.0 | 10.0 | 0.00 | 0.00 | 0.00 | 18 | 1013.2 |
| 20260504191010 | 82 | 360 | 4.0 | 10.0 | 0.00 | 0.00 | 0.00 | 18 | 1013.2 |
| 20260504190505 | 81 | 360 | 4.0 | 8.0 | 0.00 | 0.00 | 0.00 | 18 | 1013.3 |
| 20260504190025 | 82 | 360 | 2.0 | 8.0 | 0.00 | 0.00 | 0.00 | 17 | 1012.9 |
| 20260504185507 | 82 | 360 | 2.0 | 8.0 | 0.00 | 0.00 | 0.00 | 18 | 1013.2 |
| 20260504185005 | 82 | 360 | 3.0 | 8.0 | 0.00 | 0.00 | 0.00 | 18 | 1013.4 |
| 20260504184530 | 81 | 360 | 3.0 | 9.0 | 0.00 | 0.00 | 0.00 | 19 | 1013.5 |
| 20260504184006 | 81 | 360 | 4.0 | 11.0 | 0.00 | 0.00 | 0.00 | 18 | 1013.7 |
| 20260504183506 | 81 | 360 | 4.0 | 11.0 | 0.00 | 0.00 | 0.00 | 19 | 1013.6 |
| 20260504183031 | 81 | 360 | 3.0 | 8.0 | 0.00 | 0.00 | 0.00 | 20 | 1013.8 |
| 20260504182514 | 81 | 360 | 3.0 | 7.0 | 0.00 | 0.00 | 0.00 | 21 | 1013.9 |
| 20260504182018 | 80 | 360 | 1.0 | 6.0 | 0.00 | 0.00 | 0.00 | 23 | 1013.9 |
| 20260504181524 | 80 | 360 | 2.0 | 8.0 | 0.00 | 0.00 | 0.00 | 23 | 1013.9 |
| 20260504181006 | 80 | 360 | 2.0 | 8.0 | 0.00 | 0.00 | 0.00 | 23 | 1014.0 |
| 20260504180512 | 81 | 360 | 3.0 | 9.0 | 0.00 | 0.00 | 0.00 | 23 | 1014.0 |
| 20260504180025 | 80 | 360 | 3.0 | 9.0 | 0.00 | 0.00 | 0.00 | 23 | 1013.8 |
| 20260504175505 | 79 | 360 | 3.0 | 9.0 | 0.00 | 0.00 | 0.00 | 24 | 1013.9 |
| 20260504175009 | 79 | 360 | 4.0 | 9.0 | 0.00 | 0.00 | 0.00 | 24 | 1014.0 |
| 20260504174523 | 79 | 360 | 4.0 | 7.0 | 0.00 | 0.00 | 0.00 | 24 | 1013.9 |
| 20260504174005 | 79 | 360 | 1.0 | 7.0 | 0.00 | 0.00 | 0.00 | 25 | 1014.0 |
| 20260504173510 | 79 | 360 | 3.0 | 7.0 | 0.00 | 0.00 | 0.00 | 25 | 1014.0 |
| 20260504173024 | 79 | 360 | 2.0 | 9.0 | 0.00 | 0.00 | 0.00 | 25 | 1014.0 |
| 20260504172505 | 78 | 360 | 4.0 | 9.0 | 0.00 | 0.00 | 0.00 | 25 | 1014.0 |
| 20260504172010 | 78 | 360 | 3.0 | 8.0 | 0.00 | 0.00 | 0.00 | 26 | 1014.0 |
| 20260504171524 | 77 | 360 | 2.0 | 9.0 | 0.00 | 0.00 | 0.00 | 26 | 1014.1 |
| 20260504171009 | 77 | 360 | 3.0 | 9.0 | 0.00 | 0.00 | 0.00 | 26 | 1014.1 |
| 20260504170508 | 77 | 360 | 3.0 | 8.0 | 0.00 | 0.00 | 0.00 | 26 | 1014.1 |
| 20260504151014 | 75 | 360 | 5.0 | 11.0 | 0.00 | 0.00 | 0.00 | 33 | 1014.2 |
| 20260504150512 | 75 | 360 | 5.0 | 11.0 | 0.00 | 0.00 | 0.00 | 32 | 1014.2 |
| 20260504141005 | 72 | 360 | 1.0 | 7.0 | 0.00 | 0.00 | 0.00 | 34 | 1013.9 |
| 20260504140503 | 72 | 360 | 2.0 | 7.0 | 0.00 | 0.00 | 0.00 | 34 | 1013.8 |
| 20260504130504 | 70 | 360 | 0.0 | 4.0 | 0.00 | 0.00 | 0.00 | 35 | 1013.4 |
| 20260504110506 | 72 | 360 | 1.0 | 7.0 | 0.00 | 0.00 | 0.00 | 33 | 1012.5 |
| 20260504100505 | 72 | 360 | 1.0 | 5.0 | 0.00 | 0.00 | 0.00 | 33 | 1012.6 |
| 20260504082003 | 74 | 360 | 2.0 | 7.0 | 0.00 | 0.00 | 0.00 | 33 | 1012.2 |
| 20260504081524 | 74 | 360 | 2.0 | 7.0 | 0.00 | 0.00 | 0.00 | 32 | 1012.2 |
| 20260504081007 | 74 | 360 | 2.0 | 9.0 | 0.00 | 0.00 | 0.00 | 32 | 1012.0 |
| 20260504080504 | 74 | 360 | 2.0 | 12.0 | 0.00 | 0.00 | 0.00 | 32 | 1012.2 |